Satellite: NOAA-17
Catalog number: 27453
Epoch time:      10364.57035068
Element set:     123
Inclination:      098.4052 deg
RA of node:       046.8295 deg
Eccentricity:    0.0010737
Arg of perigee:   284.4896 deg
Mean anomaly:     075.5095 deg
Mean motion:   14.24223568 rev/day
Decay rate:       2.00e-06 rev/day^2
Epoch rev:           44265
Checksum:              305

Satellite: NOAA-18
Catalog number: 28654
Epoch time:      10364.52755912
Element set:     609
Inclination:      098.9757 deg
RA of node:       310.4576 deg
Eccentricity:    0.0013824
Arg of perigee:   217.6454 deg
Mean anomaly:     142.3731 deg
Mean motion:   14.11422165 rev/day
Decay rate:       -3.4e-07 rev/day^2
Epoch rev:           28913
Checksum:              307

Satellite: NOAA-19
Catalog number: 33591
Epoch time:      10364.55856501
Element set:     803
Inclination:      098.8103 deg
RA of node:       302.7004 deg
Eccentricity:    0.0015013
Arg of perigee:   093.1000 deg
Mean anomaly:     267.1891 deg
Mean motion:   14.11114608 rev/day
Decay rate:       -8.7e-07 rev/day^2
Epoch rev:            9760
Checksum:              269

/EX
SB KEPS @ AMSAT  $ORB10364.M
Orbital Elements  10364.MISC

HR AMSAT ORBITAL ELEMENTS FOR MANNED AND MISCELLANEOUS SATELLITES
FROM WA5QGD FORT WORTH,TX December 30, 2010
Send Subscribe/unsubscribe to KEPS at http://www.amsat.org/mailman/listinfo/kep
BID: ORB10364.M
TO ALL RADIO AMATEURS BT

Satellite: HUBBLE
Catalog number: 20580
Epoch time:      10363.52608847
Element set:     693
Inclination:      028.4703 deg
RA of node:       044.4992 deg
Eccentricity:    0.0003444
Arg of perigee:   119.8902 deg
Mean anomaly:     240.1995 deg
Mean motion:   15.01127167 rev/day
Decay rate:       4.90e-06 rev/day^2
Epoch rev:           93413
Checksum:              290

Satellite: ISS
Catalog number: 25544
Epoch time:      10364.88164388
Element set:     554
Inclination:      051.6475 deg
RA of node:       303.6861 deg
Eccentricity:    0.0005372
Arg of perigee:   088.8434 deg
Mean anomaly:     010.5621 deg
Mean motion:   15.72305098 rev/day
Decay rate:     1.4768e-04 rev/day^2
Epoch rev:           69441
Checksum:              313

Satellite: CO-58
Catalog number: 28895
Epoch time:      10363.65428817
Element set:    0764
Inclination:      097.9890 deg
RA of node:       241.3532 deg
Eccentricity:    0.0018663
Arg of perigee:   035.2728 deg
Mean anomaly:     324.9684 deg
Mean motion:   14.59986358 rev/day
Decay rate:       1.32e-06 rev/day^2
Epoch rev:           27550
Checksum:              358

Satellite: FALCON
Catalog number: 30776
Epoch time:      10363.93356219
Element set:    0008
Inclination:      035.4345 deg
RA of node:       295.5704 deg
Eccentricity:    0.0000795
Arg of perigee:   024.4426 deg
Mean anomaly:     335.6328 deg
Mean motion:   15.04035956 rev/day
Decay rate:       7.96e-06 rev/day^2
Epoch rev:           20954
Checksum:              300

Satellite: MAST
Catalog number: 31126
Epoch time:      10364.60664372
Element set:      47
Inclination:      097.9149 deg
RA of node:       036.2086 deg
Eccentricity:    0.0094464
Arg of perigee:   336.0774 deg
Mean anomaly:     023.6065 deg
Mean motion:   14.53658984 rev/day
Decay rate:       1.01e-06 rev/day^2
Epoch rev:           19659
Checksum:              309

Satellite: CAPE1
Catalog number: 31130
Epoch time:      10364.57150695
Element set:      68
Inclination:      097.9164 deg
RA of node:       033.2121 deg
Eccentricity:    0.0102511
Arg of perigee:   345.5667 deg
Mean anomaly:     014.2590 deg
Mean motion:   14.52271777 rev/day
Decay rate:        7.5e-07 rev/day^2
Epoch rev:           19616
Checksum:              278

Satellite: COMPASS
Catalog number: 32787
Epoch time:      10363.22953825
Element set:    0869
Inclination:      097.8713 deg
RA of node:       065.0681 deg
Eccentricity:    0.0016162
Arg of perigee:   014.5871 deg
Mean anomaly:     345.5763 deg
Mean motion:   14.82094107 rev/day
Decay rate:       5.77e-06 rev/day^2
Epoch rev:           14438
Checksum:              319

Satellite: AAUSAT2
Catalog number: 32788
Epoch time:      10363.61794695
Element set:    0859
Inclination:      097.8707 deg
RA of node:       065.6233 deg
Eccentricity:    0.0015806
Arg of perigee:   014.1173 deg
Mean anomaly:     346.0508 deg
Mean motion:   14.82253065 rev/day
Decay rate:       6.47e-06 rev/day^2
Epoch rev:           14445
Checksum:              318

Satellite: DO-64
Catalog number: 32789
Epoch time:      10363.80308557
Element set:    0875
Inclination:      097.8796 deg
RA of node:       066.5281 deg
Eccentricity:    0.0015651
Arg of perigee:   011.8518 deg
Mean anomaly:     348.3072 deg
Mean motion:   14.82515526 rev/day
Decay rate:       5.77e-06 rev/day^2
Epoch rev:           14448
Checksum:              340

Satellite: CO-66
Catalog number: 32791
Epoch time:      10364.22733439
Element set:     860
Inclination:      097.8724 deg
RA of node:       066.0330 deg
Eccentricity:    0.0016537
Arg of perigee:   009.7437 deg
Mean anomaly:     350.4088 deg
Mean motion:   14.81843709 rev/day
Decay rate:       5.47e-06 rev/day^2
Epoch rev:           14448
Checksum:              322

